Pocatello, ID

8:45 AM MDT on March 26, 2017 (GMT -0600)
Pocatello Regional

Weather History for KPIH - January, 2013

Change the Weather History Date:

Wednesday, January 9, 2013

  Actual Average Record
Temperature  
Mean Temperature 36 °F 24 °F  
Max Temperature 48 °F 32 °F 55 °F (1990)
Min Temperature 23 °F 16 °F -19 °F (1994)
Degree Days  
Heating Degree Days 29 41  
Month to date heating degree days 483 369  
Since 1 July heating degree days 3040 3354  
Cooling Degree Days 0 0  
Month to date cooling degree days 0 0  
Year to date cooling degree days 0 0  
Moisture  
Dew Point 27 °F    
Average Humidity 65    
Maximum Humidity 88    
Minimum Humidity 41    
Precipitation  
Precipitation T in 0.04 in 0.30 in (1980)
Month to date precipitation 0.03 0.33  
Year to date precipitation 0.03 0.33  
Snow  
Snow 0.00 in - - ()
Month to date snowfall 0.3  
Since 1 July snowfall 19.9  
Snow Depth 4.00 in    
Sea Level Pressure  
Sea Level Pressure 30.10 in    
Wind  
Wind Speed 10 mph (North)    
Max Wind Speed 28 mph    
Max Gust Speed 36 mph    
Visibility 10 miles    
Events      
T = Trace of Precipitation, MM = Missing Value Source: NWS Daily Summary

Daily Weather History Graph

Daily Weather History Graph

Search for Another Location

Airport or City:

Trip Planner

Search our weather history database for the weather conditions in past years. The results will help you decide how hot, cold, wet, or windy it might be!

Date:

Astronomy

Jan. 09, 2013 Rise Set
Actual Time 8:00 AM MST 5:15 PM MST
Civil Twilight 7:28 AM MST 5:46 PM MST
Nautical Twilight 6:53 AM MST 6:22 PM MST
Astronomical Twilight 6:19 AM MST 6:56 PM MST
Moon 5:44 AM MST (1/9) 3:20 PM MST (1/9)
Length of Visible Light 10h 17m
Length of Day
9h 14m
Waning Crescent, 6% of the Moon is Illuminated
Jan 9
Waning Crescent
Jan 11
New
Jan 18
First Quarter
Jan 26
Full
Feb 3
Last Quarter

Hourly Weather History & Observations

Time (MST) Temp. Windchill Dew Point Humidity Pressure Visibility Wind Dir Wind Speed Gust Speed Precip Events Conditions
12:40 AM 35.6 °F 28.0 °F 28.4 °F 75% 30.30 in 10.0 mi SSW 10.4 mph - 0.00 in   Overcast
12:53 AM 37.0 °F 31.6 °F 28.9 °F 73% 30.35 in 10.0 mi South 6.9 mph - 0.00 in   Overcast
1:53 AM 37.0 °F 31.6 °F 27.0 °F 67% 30.33 in 10.0 mi North 6.9 mph - N/A   Overcast
2:53 AM 36.0 °F 32.1 °F 27.0 °F 70% 30.34 in 10.0 mi NE 4.6 mph - N/A   Overcast
3:53 AM 37.0 °F 34.5 °F 26.1 °F 65% 30.31 in 10.0 mi Variable 3.5 mph - N/A   Overcast
4:22 AM 37.4 °F 26.9 °F 26.6 °F 65% 30.24 in 10.0 mi South 20.7 mph - N/A   Scattered Clouds
4:53 AM 37.9 °F 27.1 °F 27.0 °F 65% 30.26 in 10.0 mi South 23.0 mph 27.6 mph N/A   Partly Cloudy
5:53 AM 37.9 °F 26.3 °F 28.0 °F 68% 30.23 in 10.0 mi South 26.5 mph 32.2 mph N/A   Scattered Clouds
6:53 AM 36.0 °F 31.1 °F 27.0 °F 70% 30.23 in 10.0 mi NE 5.8 mph - N/A   Partly Cloudy
7:53 AM 33.1 °F 24.4 °F 25.0 °F 72% 30.24 in 10.0 mi NNE 11.5 mph - N/A   Partly Cloudy
8:53 AM 23.0 °F 12.4 °F 19.0 °F 85% 30.27 in 10.0 mi NNW 10.4 mph - N/A   Partly Cloudy
9:53 AM 28.0 °F 20.0 °F 21.9 °F 78% 30.23 in 10.0 mi NW 8.1 mph - N/A   Partly Cloudy
10:53 AM 33.8 °F 25.8 °F 24.8 °F 70% 30.13 in 10.0 mi NNW 10.4 mph - N/A   Clear
11:53 AM 35.1 °F 26.9 °F 27.0 °F 72% 30.12 in 10.0 mi NNW 11.5 mph - N/A   Clear
12:53 PM 37.0 °F 30.4 °F 27.0 °F 67% 30.08 in 10.0 mi North 9.2 mph - N/A   Clear
1:53 PM 37.0 °F 31.0 °F 28.0 °F 70% 30.04 in 10.0 mi North 8.1 mph - N/A   Clear
2:53 PM 37.9 °F 30.9 °F 28.9 °F 70% 30.01 in 10.0 mi North 10.4 mph - N/A   Clear
3:53 PM 36.0 °F 30.3 °F 28.9 °F 76% 30.00 in 10.0 mi NNE 6.9 mph - N/A   Clear
4:53 PM 34.0 °F 29.8 °F 28.0 °F 79% 29.97 in 10.0 mi North 4.6 mph - N/A   Clear
5:53 PM 32.0 °F 24.2 °F 28.0 °F 85% 29.93 in 10.0 mi NNW 9.2 mph - N/A   Clear
6:53 PM 44.1 °F 37.7 °F 23.0 °F 43% 29.86 in 10.0 mi ENE 12.7 mph 23.0 mph N/A   Clear
7:53 PM 35.1 °F 29.3 °F 26.1 °F 70% 29.86 in 10.0 mi NNE 6.9 mph 18.4 mph N/A   Partly Cloudy
8:53 PM 34.0 °F 24.6 °F 27.0 °F 75% 29.90 in 10.0 mi NNW 13.8 mph - N/A   Mostly Cloudy
9:53 PM 34.0 °F 28.0 °F 27.0 °F 75% 29.83 in 10.0 mi NNE 6.9 mph - N/A   Overcast
11:53 PM 32.0 °F 24.2 °F 27.0 °F 82% 29.78 in 10.0 mi NE 9.2 mph - N/A   Overcast